Flag for Germany Past Weather in Neumarkt in der Oberpfalz, Bavaria, Germany — Yesterday and Last 2 Weeks

Now
61 °F

Overcast.


Feels Like: 61 °F
Forecast: 54 / 71 °F
Wind: 1 mph from West

Location: Hohenfels

Current Time: Jun 28, 2016 at 12:17:27 AM

Latest Report: Jun 27, 2016 at 10:58 PM


Visibility: N/A

Pressure: 30.14 "Hg

Humidity: 72%

Dew Point: 52 °F

Location of Neumarkt in der OberpfalzLocation

Past Weather in Neumarkt in der Oberpfalz — Graph

°F

Neumarkt in der Oberpfalz Temperature Yesterday

Maximum temperature yesterday: 70 °F (at 2:58 PM)
Minimum temperature yesterday: 57 °F (at 4:58 AM)
Average temperature yesterday: 63 °F

High & Low Weather Summary for the Past Weeks

 TemperatureHumidityPressure
High91 °F (Jun 24, 4:58 PM)100% (Jun 16, 1:58 AM)30.29 "Hg (Jun 16, 1:58 AM)
Low45 °F (Jun 18, 4:58 AM)31% (Jun 24, 6:58 PM)29.53 "Hg (Jun 14, 4:58 PM)
Average63 °F76%29.95 "Hg
* Reported Jun 12 10:00 PM — Jun 27 10:58 PM, Neumarkt in der Oberpfalz, Weather by CustomWeather, © 2016

Note: Actual official high and low records may vary slightly from our data, if they occured in-between our weather recording intervals... More about our weather records

Advertising

Neumarkt in der Oberpfalz Weather History for the Previous 24 Hours

Scroll right to see more
 ConditionsComfort  
Time TempWeatherWind HumidityBarometerVisibility
10:58 PM
Mon, Jun 27
61 °FOvercast.1 mph72%30.14 "HgN/A
10:01 PM63 °FMore clouds than sun.2 mph64%30.15 "HgN/A
9:58 PM63 °FLight rain. More clouds than sun.1 mph68%30.13 "Hg4 mi
8:58 PM66 °FOvercast.2 mph52%30.11 "HgN/A
7:58 PM66 °FOvercast.3 mph52%30.10 "HgN/A
6:58 PM68 °FOvercast.8 mph46%30.11 "HgN/A
5:58 PM68 °FOvercast.12 mph43%30.11 "HgN/A
4:58 PM70 °FScattered clouds.10 mph43%30.09 "HgN/A
3:58 PM70 °FPartly sunny.10 mph43%30.10 "HgN/A
2:58 PM70 °FBroken clouds.8 mph43%30.10 "HgN/A
1:58 PM68 °FScattered clouds.9 mph46%30.11 "HgN/A
12:58 PM66 °FPassing clouds.7 mph52%30.14 "HgN/A
11:58 AM66 °FPassing clouds.6 mph52%30.14 "HgN/A
10:58 AM64 °FScattered clouds.8 mph56%30.14 "HgN/A
9:58 AM63 °FBroken clouds.6 mph64%30.15 "HgN/A
8:58 AM63 °FScattered clouds.6 mph68%30.13 "HgN/A
7:58 AM59 °FSunny.3 mph82%30.14 "HgN/A
6:58 AM57 °FPartly sunny.2 mph88%30.13 "HgN/A
5:58 AM57 °FMostly cloudy.1 mph88%30.12 "HgN/A
4:58 AM57 °FLight rain. Overcast.No wind88%30.11 "HgN/A
3:58 AM59 °FOvercast.6 mph77%30.10 "HgN/A
2:58 AM59 °FMostly cloudy.5 mph77%30.09 "HgN/A
1:58 AM59 °FOvercast.6 mph77%30.09 "HgN/A
12:58 AM59 °FPassing clouds.9 mph82%30.12 "HgN/A
Weather by CustomWeather, © 2016

See weather overviewHow to use our weather pages